Year,Month,Day,Hour,Minute,Value (Times are PST for temperature in C)
2021,05,05,00,00,6.30
2021,05,05,00,01,6.30
2021,05,05,00,02,6.20
2021,05,05,00,03,6.20
2021,05,05,00,04,6.20
2021,05,05,00,05,6.20
2021,05,05,00,06,6.20
2021,05,05,00,07,6.10
2021,05,05,00,08,6.10
2021,05,05,00,09,6.10
2021,05,05,00,10,6.10
2021,05,05,00,11,6.10
2021,05,05,00,12,6.10
2021,05,05,00,13,6.10
2021,05,05,00,14,6.10
2021,05,05,00,15,6.00
2021,05,05,00,16,6.10
2021,05,05,00,17,6.10
2021,05,05,00,18,6.00
2021,05,05,00,19,6.00
2021,05,05,00,20,6.00
2021,05,05,00,21,6.00
2021,05,05,00,22,6.00
2021,05,05,00,23,5.90
2021,05,05,00,24,5.90
2021,05,05,00,25,5.90
2021,05,05,00,26,5.90
2021,05,05,00,27,5.90
2021,05,05,00,28,5.80
2021,05,05,00,29,5.80
2021,05,05,00,30,5.80
2021,05,05,00,31,5.80
2021,05,05,00,32,5.80
2021,05,05,00,33,5.80
2021,05,05,00,34,5.70
2021,05,05,00,35,5.70
2021,05,05,00,36,5.70
2021,05,05,00,37,5.70
2021,05,05,00,38,5.70
2021,05,05,00,39,5.80
2021,05,05,00,40,5.80
2021,05,05,00,41,5.80
2021,05,05,00,42,5.80
2021,05,05,00,43,5.80
2021,05,05,00,44,5.80
2021,05,05,00,45,5.80
2021,05,05,00,46,5.80
2021,05,05,00,47,5.70
2021,05,05,00,48,5.70
2021,05,05,00,49,5.70
2021,05,05,00,50,5.70
2021,05,05,00,51,5.70
2021,05,05,00,52,5.70
2021,05,05,00,53,5.70
2021,05,05,00,54,5.70
2021,05,05,00,55,5.70
2021,05,05,00,56,5.60
2021,05,05,00,57,5.60
2021,05,05,00,58,5.60
2021,05,05,00,59,5.60
2021,05,05,01,00,5.60
2021,05,05,01,01,5.60
2021,05,05,01,02,5.60
2021,05,05,01,03,5.60
2021,05,05,01,04,5.60
2021,05,05,01,05,5.60
2021,05,05,01,06,5.60
2021,05,05,01,07,5.50
2021,05,05,01,08,5.50
2021,05,05,01,09,5.50
2021,05,05,01,10,5.40
2021,05,05,01,11,5.40
2021,05,05,01,12,5.40
2021,05,05,01,13,5.30
2021,05,05,01,14,5.30
2021,05,05,01,15,5.30
2021,05,05,01,16,5.30
2021,05,05,01,17,5.30
2021,05,05,01,18,5.30
2021,05,05,01,19,5.30
2021,05,05,01,20,5.30
2021,05,05,01,21,5.30
2021,05,05,01,22,5.30
2021,05,05,01,23,5.30
2021,05,05,01,24,5.30
2021,05,05,01,25,5.20
2021,05,05,01,26,5.20
2021,05,05,01,27,5.20
2021,05,05,01,28,5.20
2021,05,05,01,29,5.20
2021,05,05,01,30,5.20
2021,05,05,01,31,5.20
2021,05,05,01,32,5.20
2021,05,05,01,33,5.20
2021,05,05,01,34,5.20
2021,05,05,01,35,5.20
2021,05,05,01,36,5.20
2021,05,05,01,37,5.20
2021,05,05,01,38,5.10
2021,05,05,01,39,5.10
2021,05,05,01,40,5.10
2021,05,05,01,41,5.10
2021,05,05,01,42,5.10
2021,05,05,01,43,5.00
2021,05,05,01,44,5.00
2021,05,05,01,45,5.00
2021,05,05,01,46,5.00
2021,05,05,01,47,5.00
2021,05,05,01,48,4.90
2021,05,05,01,49,4.90
2021,05,05,01,50,4.90
2021,05,05,01,51,4.90
2021,05,05,01,52,4.80
2021,05,05,01,53,4.80
2021,05,05,01,54,4.80
2021,05,05,01,55,4.80
2021,05,05,01,56,4.80
2021,05,05,01,57,4.80
2021,05,05,01,58,4.80
2021,05,05,01,59,4.80
2021,05,05,02,00,4.80
2021,05,05,02,01,4.80
2021,05,05,02,02,4.80
2021,05,05,02,03,4.80
2021,05,05,02,04,4.80
2021,05,05,02,05,4.80
2021,05,05,02,06,4.80
2021,05,05,02,07,4.80
2021,05,05,02,08,4.80
2021,05,05,02,09,4.80
2021,05,05,02,10,4.80
2021,05,05,02,11,4.80
2021,05,05,02,12,4.80
2021,05,05,02,13,4.80
2021,05,05,02,14,4.80
2021,05,05,02,15,4.80
2021,05,05,02,16,4.80
2021,05,05,02,17,4.80
2021,05,05,02,18,4.80
2021,05,05,02,19,4.70
2021,05,05,02,20,4.70
2021,05,05,02,21,4.70
2021,05,05,02,22,4.70
2021,05,05,02,23,4.70
2021,05,05,02,24,4.70
2021,05,05,02,25,4.70
2021,05,05,02,26,4.70
2021,05,05,02,27,4.70
2021,05,05,02,28,4.70
2021,05,05,02,29,4.70
2021,05,05,02,30,4.80
2021,05,05,02,31,4.80
2021,05,05,02,32,4.80
2021,05,05,02,33,4.80
2021,05,05,02,34,4.80
2021,05,05,02,35,4.80
2021,05,05,02,36,4.80
2021,05,05,02,37,4.80
2021,05,05,02,38,4.80
2021,05,05,02,39,4.70
2021,05,05,02,40,4.70
2021,05,05,02,41,4.70
2021,05,05,02,42,4.70
2021,05,05,02,43,4.70
2021,05,05,02,44,4.70
2021,05,05,02,45,4.70
2021,05,05,02,46,4.70
2021,05,05,02,47,4.70
2021,05,05,02,48,4.70
2021,05,05,02,49,4.60
2021,05,05,02,50,4.60
2021,05,05,02,51,4.70
2021,05,05,02,52,4.70
2021,05,05,02,53,4.70
2021,05,05,02,54,4.70
2021,05,05,02,55,4.70
2021,05,05,02,56,4.70
2021,05,05,02,57,4.70
2021,05,05,02,58,4.70
2021,05,05,02,59,4.70
2021,05,05,03,00,4.70
2021,05,05,03,01,4.70
2021,05,05,03,02,4.70
2021,05,05,03,03,4.60
2021,05,05,03,04,4.60
2021,05,05,03,05,4.60
2021,05,05,03,06,4.60
2021,05,05,03,07,4.60
2021,05,05,03,08,4.60
2021,05,05,03,09,4.60
2021,05,05,03,10,4.60
2021,05,05,03,11,4.60
2021,05,05,03,12,4.60
2021,05,05,03,13,4.60
2021,05,05,03,14,4.60
2021,05,05,03,15,4.60
2021,05,05,03,16,4.60
2021,05,05,03,17,4.60
2021,05,05,03,18,4.60
2021,05,05,03,19,4.60
2021,05,05,03,20,4.60
2021,05,05,03,21,4.50
2021,05,05,03,22,4.50
2021,05,05,03,23,4.50
2021,05,05,03,24,4.50
2021,05,05,03,25,4.50
2021,05,05,03,26,4.40
2021,05,05,03,27,4.50
2021,05,05,03,28,4.50
2021,05,05,03,29,4.50
2021,05,05,03,30,4.50
2021,05,05,03,31,4.50
2021,05,05,03,32,4.50
2021,05,05,03,33,4.50
2021,05,05,03,34,4.50
2021,05,05,03,35,4.50
2021,05,05,03,36,4.50
2021,05,05,03,37,4.50
2021,05,05,03,38,4.50
2021,05,05,03,39,4.50
2021,05,05,03,40,4.50
2021,05,05,03,41,4.50
2021,05,05,03,42,4.40
2021,05,05,03,43,4.40
2021,05,05,03,44,4.40
2021,05,05,03,45,4.40
2021,05,05,03,46,4.40
2021,05,05,03,47,4.40
2021,05,05,03,48,4.40
2021,05,05,03,49,4.30
2021,05,05,03,50,4.30
2021,05,05,03,51,4.30
2021,05,05,03,52,4.30
2021,05,05,03,53,4.30
2021,05,05,03,54,4.40
2021,05,05,03,55,4.40
2021,05,05,03,56,4.40
2021,05,05,03,57,4.40
2021,05,05,03,58,4.40
2021,05,05,03,59,4.40
2021,05,05,04,00,4.40
2021,05,05,04,01,4.40
2021,05,05,04,02,4.40
2021,05,05,04,03,4.40
2021,05,05,04,04,4.40
2021,05,05,04,05,4.40
2021,05,05,04,06,4.30
2021,05,05,04,07,4.30
2021,05,05,04,08,4.30
2021,05,05,04,09,4.30
2021,05,05,04,10,4.30
2021,05,05,04,11,4.20
2021,05,05,04,12,4.20
2021,05,05,04,13,4.20
2021,05,05,04,14,4.20
2021,05,05,04,15,4.20
2021,05,05,04,16,4.20
2021,05,05,04,17,4.20
2021,05,05,04,18,4.20
2021,05,05,04,19,4.20
2021,05,05,04,20,4.20
2021,05,05,04,21,4.20
2021,05,05,04,22,4.20
2021,05,05,04,23,4.20
2021,05,05,04,24,4.20
2021,05,05,04,25,4.20
2021,05,05,04,26,4.20
2021,05,05,04,27,4.20
2021,05,05,04,28,4.20
2021,05,05,04,29,4.10
2021,05,05,04,30,4.10
2021,05,05,04,31,4.10
2021,05,05,04,32,4.10
2021,05,05,04,33,4.10
2021,05,05,04,34,4.10
2021,05,05,04,35,4.00
2021,05,05,04,36,4.00
2021,05,05,04,37,4.00
2021,05,05,04,38,4.00
2021,05,05,04,39,4.10
2021,05,05,04,40,4.10
2021,05,05,04,41,4.10
2021,05,05,04,42,4.10
2021,05,05,04,43,4.20
2021,05,05,04,44,4.20
2021,05,05,04,45,4.10
2021,05,05,04,46,4.10
2021,05,05,04,47,4.10
2021,05,05,04,48,4.10
2021,05,05,04,49,4.10
2021,05,05,04,50,4.00
2021,05,05,04,51,4.00
2021,05,05,04,52,4.00
2021,05,05,04,53,4.00
2021,05,05,04,54,4.00
2021,05,05,04,55,4.00
2021,05,05,04,56,4.00
2021,05,05,04,57,4.00
2021,05,05,04,58,4.00
2021,05,05,04,59,4.00
2021,05,05,05,00,4.00
2021,05,05,05,01,4.00
2021,05,05,05,02,4.00
2021,05,05,05,03,4.00
2021,05,05,05,04,4.00
2021,05,05,05,05,4.00
2021,05,05,05,06,4.00
2021,05,05,05,07,4.00
2021,05,05,05,08,4.00
2021,05,05,05,09,4.00
2021,05,05,05,10,4.00
2021,05,05,05,11,4.00
2021,05,05,05,12,4.00
2021,05,05,05,13,4.00
2021,05,05,05,14,4.00
2021,05,05,05,15,4.10
2021,05,05,05,16,4.10
2021,05,05,05,17,4.10
2021,05,05,05,18,4.20
2021,05,05,05,19,4.20
2021,05,05,05,20,4.20
2021,05,05,05,21,4.20
2021,05,05,05,22,4.20
2021,05,05,05,23,4.30
2021,05,05,05,24,4.30
2021,05,05,05,25,4.30
2021,05,05,05,26,4.30
2021,05,05,05,27,4.30
2021,05,05,05,28,4.30
2021,05,05,05,29,4.30
2021,05,05,05,30,4.30
2021,05,05,05,31,4.30
2021,05,05,05,32,4.30
2021,05,05,05,33,4.30
2021,05,05,05,34,4.30
2021,05,05,05,35,4.30
2021,05,05,05,36,4.30
2021,05,05,05,37,4.30
2021,05,05,05,38,4.30
2021,05,05,05,39,4.30
2021,05,05,05,40,4.30
2021,05,05,05,41,4.30
2021,05,05,05,42,4.30
2021,05,05,05,43,4.30
2021,05,05,05,44,4.30
2021,05,05,05,45,4.40
2021,05,05,05,46,4.40
2021,05,05,05,47,4.40
2021,05,05,05,48,4.40
2021,05,05,05,49,4.40
2021,05,05,05,50,4.50
2021,05,05,05,51,4.50
2021,05,05,05,52,4.50
2021,05,05,05,53,4.60
2021,05,05,05,54,4.60
2021,05,05,05,55,4.60
2021,05,05,05,56,4.70
2021,05,05,05,57,4.70
2021,05,05,05,58,4.70
2021,05,05,05,59,4.80
2021,05,05,06,00,4.80
2021,05,05,06,01,4.80
2021,05,05,06,02,4.90
2021,05,05,06,03,5.00
2021,05,05,06,04,5.10
2021,05,05,06,05,5.10
2021,05,05,06,06,5.10
2021,05,05,06,07,5.20
2021,05,05,06,08,5.20
2021,05,05,06,09,5.20
2021,05,05,06,10,5.30
2021,05,05,06,11,5.30
2021,05,05,06,12,5.30
2021,05,05,06,13,5.30
2021,05,05,06,14,5.30
2021,05,05,06,15,5.30
2021,05,05,06,16,5.40
2021,05,05,06,17,5.40
2021,05,05,06,18,5.40
2021,05,05,06,19,5.50
2021,05,05,06,20,5.50
2021,05,05,06,21,5.60
2021,05,05,06,22,5.70
2021,05,05,06,23,5.80
2021,05,05,06,24,5.90
2021,05,05,06,25,6.00
2021,05,05,06,26,6.00
2021,05,05,06,27,6.10
2021,05,05,06,28,6.10
2021,05,05,06,29,6.20
2021,05,05,06,30,6.20
2021,05,05,06,31,6.20
2021,05,05,06,32,6.20
2021,05,05,06,33,6.30
2021,05,05,06,34,6.30
2021,05,05,06,35,6.30
2021,05,05,06,36,6.30
2021,05,05,06,37,6.30
2021,05,05,06,38,6.30
2021,05,05,06,39,6.30
2021,05,05,06,40,6.30
2021,05,05,06,41,6.30
2021,05,05,06,42,6.30
2021,05,05,06,43,6.30
2021,05,05,06,44,6.30
2021,05,05,06,45,6.40
2021,05,05,06,46,6.40
2021,05,05,06,47,6.40
2021,05,05,06,48,6.40
2021,05,05,06,49,6.50
2021,05,05,06,50,6.50
2021,05,05,06,51,6.50
2021,05,05,06,52,6.60
2021,05,05,06,53,6.60
2021,05,05,06,54,6.60
2021,05,05,06,55,6.70
2021,05,05,06,56,6.70
2021,05,05,06,57,6.80
2021,05,05,06,58,6.80
2021,05,05,06,59,6.80
2021,05,05,07,00,6.90
2021,05,05,07,01,7.00
2021,05,05,07,02,7.00
2021,05,05,07,03,7.00
2021,05,05,07,04,7.10
2021,05,05,07,05,7.10
2021,05,05,07,06,7.20
2021,05,05,07,07,7.20
2021,05,05,07,08,7.30
2021,05,05,07,09,7.30
2021,05,05,07,10,7.30
2021,05,05,07,11,7.30
2021,05,05,07,12,7.40
2021,05,05,07,13,7.40
2021,05,05,07,14,7.50
2021,05,05,07,15,7.50
2021,05,05,07,16,7.60
2021,05,05,07,17,7.60
2021,05,05,07,18,7.60
2021,05,05,07,19,7.70
2021,05,05,07,20,7.70
2021,05,05,07,21,7.70
2021,05,05,07,22,7.70
2021,05,05,07,23,7.80
2021,05,05,07,24,7.80
2021,05,05,07,25,7.80
2021,05,05,07,26,7.90
2021,05,05,07,27,7.90
2021,05,05,07,28,7.90
2021,05,05,07,29,8.00
2021,05,05,07,30,8.00
2021,05,05,07,31,8.00
2021,05,05,07,32,8.10
2021,05,05,07,33,8.10
2021,05,05,07,34,8.10
2021,05,05,07,35,8.10
2021,05,05,07,36,8.20
2021,05,05,07,37,8.20
2021,05,05,07,38,8.20
2021,05,05,07,39,8.30
2021,05,05,07,40,8.30
2021,05,05,07,41,8.30
2021,05,05,07,42,8.30
2021,05,05,07,43,8.40
2021,05,05,07,44,8.40
2021,05,05,07,45,8.40
2021,05,05,07,46,8.50
2021,05,05,07,47,8.50
2021,05,05,07,48,8.60
2021,05,05,07,49,8.60
2021,05,05,07,50,8.60
2021,05,05,07,51,8.60
2021,05,05,07,52,8.70
2021,05,05,07,53,8.70
2021,05,05,07,54,8.70
2021,05,05,07,55,8.80
2021,05,05,07,56,8.80
2021,05,05,07,57,8.90
2021,05,05,07,58,8.90
2021,05,05,07,59,8.90
2021,05,05,08,00,9.00
2021,05,05,08,01,9.00
2021,05,05,08,02,9.10
2021,05,05,08,03,9.10
2021,05,05,08,04,9.20
2021,05,05,08,05,9.20
2021,05,05,08,06,9.30
2021,05,05,08,07,9.30
2021,05,05,08,08,9.30
2021,05,05,08,09,9.40
2021,05,05,08,10,9.40
2021,05,05,08,11,9.50
2021,05,05,08,12,9.60
2021,05,05,08,13,9.60
2021,05,05,08,14,9.70
2021,05,05,08,15,9.70
2021,05,05,08,16,9.80
2021,05,05,08,17,9.80
2021,05,05,08,18,9.90
2021,05,05,08,19,9.90
2021,05,05,08,20,10.00
2021,05,05,08,21,10.00
2021,05,05,08,22,10.10
2021,05,05,08,23,10.10
2021,05,05,08,24,10.20
2021,05,05,08,25,10.20
2021,05,05,08,26,10.30
2021,05,05,08,27,10.40
2021,05,05,08,28,10.40
2021,05,05,08,29,10.50
2021,05,05,08,30,10.70
2021,05,05,08,31,10.70
2021,05,05,08,32,10.80
2021,05,05,08,33,10.80
2021,05,05,08,34,10.80
2021,05,05,08,35,10.80
2021,05,05,08,36,10.90
2021,05,05,08,37,11.00
2021,05,05,08,38,11.00
2021,05,05,08,39,11.00
2021,05,05,08,40,11.00
2021,05,05,08,41,11.20
2021,05,05,08,42,11.20
2021,05,05,08,43,11.30
2021,05,05,08,44,11.50
2021,05,05,08,45,11.50
2021,05,05,08,46,11.70
2021,05,05,08,47,11.80
2021,05,05,08,48,11.80
2021,05,05,08,49,11.80
2021,05,05,08,50,11.80
2021,05,05,08,51,11.80
2021,05,05,08,52,11.90
2021,05,05,08,53,11.80
2021,05,05,08,54,11.80
2021,05,05,08,55,11.90
2021,05,05,08,56,11.90
2021,05,05,08,57,11.90
2021,05,05,08,58,12.00
2021,05,05,08,59,12.10
2021,05,05,09,00,12.20
2021,05,05,09,01,12.20
2021,05,05,09,02,12.30
2021,05,05,09,03,12.30
2021,05,05,09,04,12.40
2021,05,05,09,05,12.40
2021,05,05,09,06,12.40
2021,05,05,09,07,12.40
2021,05,05,09,08,12.40
2021,05,05,09,09,12.40
2021,05,05,09,10,12.50
2021,05,05,09,11,12.50
2021,05,05,09,12,12.50
2021,05,05,09,13,12.60
2021,05,05,09,14,12.70
2021,05,05,09,15,12.70
2021,05,05,09,16,12.80
2021,05,05,09,17,12.90
2021,05,05,09,18,12.90
2021,05,05,09,19,13.00
2021,05,05,09,20,13.10
2021,05,05,09,21,13.10
2021,05,05,09,22,13.10
2021,05,05,09,23,13.10
2021,05,05,09,24,13.10
2021,05,05,09,25,13.10
2021,05,05,09,26,13.10
2021,05,05,09,27,13.20
2021,05,05,09,28,13.20
2021,05,05,09,29,13.20
2021,05,05,09,30,13.20
2021,05,05,09,31,13.20
2021,05,05,09,32,13.20
2021,05,05,09,33,13.10
2021,05,05,09,34,13.10
2021,05,05,09,35,13.20
2021,05,05,09,36,13.20
2021,05,05,09,37,13.20
2021,05,05,09,38,13.20
2021,05,05,09,39,13.30
2021,05,05,09,40,13.30
2021,05,05,09,41,13.50
2021,05,05,09,42,13.50
2021,05,05,09,43,13.50
2021,05,05,09,44,13.50
2021,05,05,09,45,13.50
2021,05,05,09,46,13.60
2021,05,05,09,47,13.50
2021,05,05,09,48,13.50
2021,05,05,09,49,13.50
2021,05,05,09,50,13.50
2021,05,05,09,51,13.50
2021,05,05,09,52,13.60
2021,05,05,09,53,13.70
2021,05,05,09,54,13.80
2021,05,05,09,55,13.80
2021,05,05,09,56,13.80
2021,05,05,09,57,13.90
2021,05,05,09,58,13.80
2021,05,05,09,59,13.80
2021,05,05,10,00,13.80
2021,05,05,10,01,13.90
2021,05,05,10,02,13.90
2021,05,05,10,03,13.90
2021,05,05,10,04,13.90
2021,05,05,10,05,13.90
2021,05,05,10,06,13.90
2021,05,05,10,07,13.90
2021,05,05,10,08,13.90
2021,05,05,10,09,13.90
2021,05,05,10,10,14.00
2021,05,05,10,11,14.10
2021,05,05,10,12,14.20
2021,05,05,10,13,14.30
2021,05,05,10,14,14.40
2021,05,05,10,15,14.50
2021,05,05,10,16,14.50
2021,05,05,10,17,14.50
2021,05,05,10,18,14.60
2021,05,05,10,19,14.70
2021,05,05,10,20,14.70
2021,05,05,10,21,14.80
2021,05,05,10,22,14.80
2021,05,05,10,23,14.80
2021,05,05,10,24,14.80
2021,05,05,10,25,14.90
2021,05,05,10,26,14.90
2021,05,05,10,27,14.90
2021,05,05,10,28,14.90
2021,05,05,10,29,14.90
2021,05,05,10,30,14.90
2021,05,05,10,31,14.90
2021,05,05,10,32,14.90
2021,05,05,10,33,14.90
2021,05,05,10,34,14.90
2021,05,05,10,35,14.90
2021,05,05,10,36,14.90
2021,05,05,10,37,14.90
2021,05,05,10,38,14.80
2021,05,05,10,39,14.80
2021,05,05,10,40,14.80
2021,05,05,10,41,14.80
2021,05,05,10,42,14.90
2021,05,05,10,43,14.90
2021,05,05,10,44,14.90
2021,05,05,10,45,14.90
2021,05,05,10,46,14.80
2021,05,05,10,47,14.80
2021,05,05,10,48,14.80
2021,05,05,10,49,14.80
2021,05,05,10,50,14.70
2021,05,05,10,51,14.60
2021,05,05,10,52,14.50
2021,05,05,10,53,14.40
2021,05,05,10,54,14.40
2021,05,05,10,55,14.30
2021,05,05,10,56,14.20
2021,05,05,10,57,14.20
2021,05,05,10,58,14.10
2021,05,05,10,59,14.10
2021,05,05,11,00,14.00
2021,05,05,11,01,14.00
2021,05,05,11,02,14.10
2021,05,05,11,03,14.10
2021,05,05,11,04,14.00
2021,05,05,11,05,14.10
2021,05,05,11,06,14.10
2021,05,05,11,07,14.10
2021,05,05,11,08,14.10
2021,05,05,11,09,14.10
2021,05,05,11,10,14.10
2021,05,05,11,11,14.10
2021,05,05,11,12,14.20
2021,05,05,11,13,14.20
2021,05,05,11,14,14.10
2021,05,05,11,15,14.10
2021,05,05,11,16,14.10
2021,05,05,11,17,14.00
2021,05,05,11,18,14.00
2021,05,05,11,19,13.90
2021,05,05,11,20,13.90
2021,05,05,11,21,13.90
2021,05,05,11,22,13.80
2021,05,05,11,23,13.80
2021,05,05,11,24,13.80
2021,05,05,11,25,13.80
2021,05,05,11,26,13.80
2021,05,05,11,27,13.80
2021,05,05,11,28,13.70
2021,05,05,11,29,13.80
2021,05,05,11,30,13.80
2021,05,05,11,31,13.80
2021,05,05,11,32,13.80
2021,05,05,11,33,13.80
2021,05,05,11,34,13.80
2021,05,05,11,35,13.80
2021,05,05,11,36,13.70
2021,05,05,11,37,13.70
2021,05,05,11,38,13.70
2021,05,05,11,39,13.70
2021,05,05,11,40,13.60
2021,05,05,11,41,13.60
2021,05,05,11,42,13.60
2021,05,05,11,43,13.60
2021,05,05,11,44,13.60
2021,05,05,11,45,13.60
2021,05,05,11,46,13.60
2021,05,05,11,47,13.60
2021,05,05,11,48,13.60
2021,05,05,11,49,13.60
2021,05,05,11,50,13.60
2021,05,05,11,51,13.50
2021,05,05,11,52,13.50
2021,05,05,11,53,13.50
2021,05,05,11,54,13.40
2021,05,05,11,55,13.40
2021,05,05,11,56,13.40
2021,05,05,11,57,13.40
2021,05,05,11,58,13.30
2021,05,05,11,59,13.30
2021,05,05,12,00,13.30
2021,05,05,12,01,13.30
2021,05,05,12,02,13.40
2021,05,05,12,03,13.40
2021,05,05,12,04,13.40
2021,05,05,12,05,13.50
2021,05,05,12,06,13.50
2021,05,05,12,07,13.60
2021,05,05,12,08,13.60
2021,05,05,12,09,13.60
2021,05,05,12,10,13.60
2021,05,05,12,11,13.60
2021,05,05,12,12,13.60
2021,05,05,12,13,13.60
2021,05,05,12,14,13.60
2021,05,05,12,15,13.50
2021,05,05,12,16,13.50
2021,05,05,12,17,13.40
2021,05,05,12,18,13.40
2021,05,05,12,19,13.40
2021,05,05,12,20,13.40
2021,05,05,12,21,13.40
2021,05,05,12,22,13.40
2021,05,05,12,23,13.40
2021,05,05,12,24,13.40
2021,05,05,12,25,13.50
2021,05,05,12,26,13.50
2021,05,05,12,27,13.50
2021,05,05,12,28,13.50
2021,05,05,12,29,13.60
2021,05,05,12,30,13.60
2021,05,05,12,31,13.60
2021,05,05,12,32,13.60
2021,05,05,12,33,13.70
2021,05,05,12,34,13.70
2021,05,05,12,35,13.70
2021,05,05,12,36,13.70
2021,05,05,12,37,13.70
2021,05,05,12,38,13.80
2021,05,05,12,39,13.80
2021,05,05,12,40,13.90
2021,05,05,12,41,13.90
2021,05,05,12,42,13.90
2021,05,05,12,43,13.90
2021,05,05,12,44,13.90
2021,05,05,12,45,13.90
2021,05,05,12,46,13.90
2021,05,05,12,47,13.90
2021,05,05,12,48,13.90
2021,05,05,12,49,14.00
2021,05,05,12,50,14.10
2021,05,05,12,51,14.10
2021,05,05,12,52,14.10
2021,05,05,12,53,14.10
2021,05,05,12,54,14.20
2021,05,05,12,55,14.20
2021,05,05,12,56,14.20
2021,05,05,12,57,14.20
2021,05,05,12,58,14.20
2021,05,05,12,59,14.30
2021,05,05,13,00,14.30
2021,05,05,13,01,14.30
2021,05,05,13,02,14.40
2021,05,05,13,03,14.40
2021,05,05,13,04,14.50
2021,05,05,13,05,14.50
2021,05,05,13,06,14.60
2021,05,05,13,07,14.60
2021,05,05,13,08,14.60
2021,05,05,13,09,14.60
2021,05,05,13,10,14.60
2021,05,05,13,11,14.60
2021,05,05,13,12,14.70
2021,05,05,13,13,14.70
2021,05,05,13,14,14.70
2021,05,05,13,15,14.80
2021,05,05,13,16,14.80
2021,05,05,13,17,14.80
2021,05,05,13,18,14.90
2021,05,05,13,19,14.90
2021,05,05,13,20,15.00
2021,05,05,13,21,15.10
2021,05,05,13,22,15.20
2021,05,05,13,23,15.30
2021,05,05,13,24,15.30
2021,05,05,13,25,15.40
2021,05,05,13,26,15.50
2021,05,05,13,27,15.60
2021,05,05,13,28,15.70
2021,05,05,13,29,15.70
2021,05,05,13,30,15.70
2021,05,05,13,31,15.70
2021,05,05,13,32,15.70
2021,05,05,13,33,15.70
2021,05,05,13,34,15.70
2021,05,05,13,35,15.70
2021,05,05,13,36,15.70
2021,05,05,13,37,15.70
2021,05,05,13,38,15.70
2021,05,05,13,39,15.70
2021,05,05,13,40,15.70
2021,05,05,13,41,15.70
2021,05,05,13,42,15.70
2021,05,05,13,43,15.70
2021,05,05,13,44,15.80
2021,05,05,13,45,15.80
2021,05,05,13,46,15.90
2021,05,05,13,47,16.00
2021,05,05,13,48,16.10
2021,05,05,13,49,16.20
2021,05,05,13,50,16.30
2021,05,05,13,51,16.40
2021,05,05,13,52,16.50
2021,05,05,13,53,16.50
2021,05,05,13,54,16.60
2021,05,05,13,55,16.60
2021,05,05,13,56,16.70
2021,05,05,13,57,16.70
2021,05,05,13,58,16.80
2021,05,05,13,59,16.80
2021,05,05,14,00,16.90
2021,05,05,14,01,17.00
2021,05,05,14,02,17.00
2021,05,05,14,03,17.10
2021,05,05,14,04,17.10
2021,05,05,14,05,17.20
2021,05,05,14,06,17.20
2021,05,05,14,07,17.20
2021,05,05,14,08,17.20
2021,05,05,14,09,17.20
2021,05,05,14,10,17.20
2021,05,05,14,11,17.20
2021,05,05,14,12,17.10
2021,05,05,14,13,17.10
2021,05,05,14,14,17.20
2021,05,05,14,15,17.20
2021,05,05,14,16,17.30
2021,05,05,14,17,17.30
2021,05,05,14,18,17.30
2021,05,05,14,19,17.30
2021,05,05,14,20,17.30
2021,05,05,14,21,17.20
2021,05,05,14,22,17.20
2021,05,05,14,23,17.20
2021,05,05,14,24,17.30
2021,05,05,14,25,17.30
2021,05,05,14,26,17.30
2021,05,05,14,27,17.40
2021,05,05,14,28,17.40
2021,05,05,14,29,17.40
2021,05,05,14,30,17.40
2021,05,05,14,31,17.30
2021,05,05,14,32,17.30
2021,05,05,14,33,17.20
2021,05,05,14,34,17.20
2021,05,05,14,35,17.20
2021,05,05,14,36,17.20
2021,05,05,14,37,17.10
2021,05,05,14,38,17.10
2021,05,05,14,39,17.10
2021,05,05,14,40,17.10
2021,05,05,14,41,17.00
2021,05,05,14,42,16.90
2021,05,05,14,43,16.90
2021,05,05,14,44,16.80
2021,05,05,14,45,16.80
2021,05,05,14,46,16.80
2021,05,05,14,47,16.90
2021,05,05,14,48,16.90
2021,05,05,14,49,16.90
2021,05,05,14,50,16.90
2021,05,05,14,51,16.90
2021,05,05,14,52,16.90
2021,05,05,14,53,17.00
2021,05,05,14,54,17.00
2021,05,05,14,55,17.10
2021,05,05,14,56,17.00
2021,05,05,14,57,16.90
2021,05,05,14,58,16.90
2021,05,05,14,59,17.00
2021,05,05,15,00,17.00
2021,05,05,15,01,17.00
2021,05,05,15,02,17.00
2021,05,05,15,03,17.00
2021,05,05,15,04,16.90
2021,05,05,15,05,16.90
2021,05,05,15,06,16.80
2021,05,05,15,07,16.80
2021,05,05,15,08,16.90
2021,05,05,15,09,16.90
2021,05,05,15,10,16.90
2021,05,05,15,11,16.90
2021,05,05,15,12,16.90
2021,05,05,15,13,17.00
2021,05,05,15,14,17.00
2021,05,05,15,15,17.10
2021,05,05,15,16,17.10
2021,05,05,15,17,17.20
2021,05,05,15,18,17.30
2021,05,05,15,19,17.40
2021,05,05,15,20,17.40
2021,05,05,15,21,17.50
2021,05,05,15,22,17.50
2021,05,05,15,23,17.60
2021,05,05,15,24,17.60
2021,05,05,15,25,17.60
2021,05,05,15,26,17.70
2021,05,05,15,27,17.80
2021,05,05,15,28,17.80
2021,05,05,15,29,17.90
2021,05,05,15,30,17.90
2021,05,05,15,31,18.00
2021,05,05,15,32,18.00
2021,05,05,15,33,18.10
2021,05,05,15,34,18.10
2021,05,05,15,35,18.10
2021,05,05,15,36,18.10
2021,05,05,15,37,18.10
2021,05,05,15,38,18.10
2021,05,05,15,39,18.00
2021,05,05,15,40,17.90
2021,05,05,15,41,17.90
2021,05,05,15,42,17.90
2021,05,05,15,43,17.90
2021,05,05,15,44,17.90
2021,05,05,15,45,17.90
2021,05,05,15,46,17.90
2021,05,05,15,47,17.80
2021,05,05,15,48,17.80
2021,05,05,15,49,17.80
2021,05,05,15,50,17.70
2021,05,05,15,51,17.70
2021,05,05,15,52,17.70
2021,05,05,15,53,17.70
2021,05,05,15,54,17.70
2021,05,05,15,55,17.70
2021,05,05,15,56,17.80
2021,05,05,15,57,17.80
2021,05,05,15,58,17.80
2021,05,05,15,59,17.70
2021,05,05,16,00,17.70
2021,05,05,16,01,17.80
2021,05,05,16,02,17.80
2021,05,05,16,03,17.80
2021,05,05,16,04,17.80
2021,05,05,16,05,17.80
2021,05,05,16,06,17.90
2021,05,05,16,07,17.90
2021,05,05,16,08,17.90
2021,05,05,16,09,17.90
2021,05,05,16,10,17.80
2021,05,05,16,11,17.80
2021,05,05,16,12,17.80
2021,05,05,16,13,17.80
2021,05,05,16,14,17.80
2021,05,05,16,15,17.80
2021,05,05,16,16,17.80
2021,05,05,16,17,17.80
2021,05,05,16,18,17.90
2021,05,05,16,19,17.90
2021,05,05,16,20,18.00
2021,05,05,16,21,18.10
2021,05,05,16,22,18.10
2021,05,05,16,23,18.10
2021,05,05,16,24,18.20
2021,05,05,16,25,18.30
2021,05,05,16,26,18.30
2021,05,05,16,27,18.40
2021,05,05,16,28,18.40
2021,05,05,16,29,18.40
2021,05,05,16,30,18.40
2021,05,05,16,31,18.40
2021,05,05,16,32,18.40
2021,05,05,16,33,18.40
2021,05,05,16,34,18.50
2021,05,05,16,35,18.50
2021,05,05,16,36,18.60
2021,05,05,16,37,18.50
2021,05,05,16,38,18.50
2021,05,05,16,39,18.50
2021,05,05,16,40,18.60
2021,05,05,16,41,18.60
2021,05,05,16,42,18.60
2021,05,05,16,43,18.60
2021,05,05,16,44,18.60
2021,05,05,16,45,18.60
2021,05,05,16,46,18.60
2021,05,05,16,47,18.70
2021,05,05,16,48,18.70
2021,05,05,16,49,18.70
2021,05,05,16,50,18.80
2021,05,05,16,51,18.80
2021,05,05,16,52,18.90
2021,05,05,16,53,18.90
2021,05,05,16,54,18.90
2021,05,05,16,55,18.90
2021,05,05,16,56,18.80
2021,05,05,16,57,18.90
2021,05,05,16,58,18.90
2021,05,05,16,59,18.90
2021,05,05,17,00,18.90
2021,05,05,17,01,18.80
2021,05,05,17,02,18.80
2021,05,05,17,03,18.80
2021,05,05,17,04,18.80
2021,05,05,17,05,18.70
2021,05,05,17,06,18.70
2021,05,05,17,07,18.80
2021,05,05,17,08,18.70
2021,05,05,17,09,18.70
2021,05,05,17,10,18.70
2021,05,05,17,11,18.70
2021,05,05,17,12,18.60
2021,05,05,17,13,18.60
2021,05,05,17,14,18.60
2021,05,05,17,15,18.60
2021,05,05,17,16,18.60
2021,05,05,17,17,18.60
2021,05,05,17,18,18.60
2021,05,05,17,19,18.60
2021,05,05,17,20,18.60
2021,05,05,17,21,18.60
2021,05,05,17,22,18.70
2021,05,05,17,23,18.70
2021,05,05,17,24,18.70
2021,05,05,17,25,18.80
2021,05,05,17,26,18.90
2021,05,05,17,27,19.00
2021,05,05,17,28,19.10
2021,05,05,17,29,19.10
2021,05,05,17,30,19.20
2021,05,05,17,31,19.20
2021,05,05,17,32,19.20
2021,05,05,17,33,19.20
2021,05,05,17,34,19.20
2021,05,05,17,35,19.20
2021,05,05,17,36,19.20
2021,05,05,17,37,19.20
2021,05,05,17,38,19.20
2021,05,05,17,39,19.20
2021,05,05,17,40,19.20
2021,05,05,17,41,19.20